Warning: Javascript must be enabled to use all the features on this page!


Page Loading - Please Wait...

Click to hideNews Bulletins

Peak Streamflow for the Nation

USGS 02423380 CAHABA RIVER NEAR MOUNTAIN BROOK AL

Jefferson County, Alabama
Hydrologic Unit Code 03150202
Latitude  33°28'54", Longitude  86°42'46" NAD27
Drainage area 140.00  square miles
Contributing drainage area 140.00  square miles
Gage datum 443.85 feet above NGVD29
Output formats
Table
Graph
Tab-separated file
peakfq (watstore) format
Reselect output format
Water
Year
Date Gage
Height
(feet)
Stream-
flow
(cfs)
1979 1979-04-13 20.60 19,0007
1981 1981-03-30 10.84 6,750
1985 1985-02-01 9.18 5,340
1986 1986-07-21 3.75 1,420
1987 1987-01-19 8.80 4,110
1988 1988-01-20 7.29 3,140
1989 1989-03-05 12.10 6,410
1990 1990-03-16 11.99 6,880
1991 1991-02-20 9.84 5,240
1992 1992-09-04 7.15 3,370
1993 1993-01-13 8.55 4,320
1994 1994-07-27 9.87 5,190
1995 1995-03-08 8.75 4,310
1996 1996-01-27 15.60 10,500
1997 1997-06-14 13.15 8,050
1998 1998-01-08 16.19 12,500
1999 1999-06-28 15.11 11,000
2000 2000-04-04 14.58 10,300
2001 2001-04-04 16.70 13,200
2002 2002-09-22 11.65 6,780
2003 2003-05-08 25.08 23,500
2004 2004-09-16 16.94 12,700
2005 2004-11-23 13.40 8,760
2006 2006-02-06 6.29 2,980
2007 2007-01-08 3.90 1,250
2008 2008-08-26 9.52 5,420
2009 2009-09-18 15.42 11,200
2010 2009-11-11 12.33 8,010
2011 2011-03-09 12.86 8,540
2012 2012-01-27 9.89 5,740
2013 2013-05-18 16.15 12,100
2014 2014-04-07 16.25 13,300
2015 2015-01-04 10.52 7,980
2016 2015-12-26 13.38 10,900
2017 2017-04-03 9.79 7,220
2018 2018-04-15 10.61 8,070
2019 2018-12-28 13.24 10,800
?
  Peak Streamflow Qualification Codes.